• In Hungary
  • List of Countries
  • For 7 days
  • Water Temperature
  • Satellite Maps
  • Weather Map
  • News
  • Weather Widgets
  • user-avatar
    Login

    Hourly Weather Barra

    Today, 18 November, Saturday

    Time Temperature Precipitation Wind Pressure Humidity
    00:00 +23°C° 0 mm 2 mps 748 mmHg 89%
    01:00 +23°C° 0 mm 2 mps 748 mmHg 90%
    02:00 +23°C° 0 mm 2 mps 747 mmHg 91%
    03:00 +23°C° 0 mm 2 mps 747 mmHg 92%
    04:00 +21°C° 0 mm 2 mps 747 mmHg 93%
    05:00 +23°C° 0 mm 2 mps 747 mmHg 89%
    06:00 +24°C° 0 mm 2 mps 747 mmHg 85%
    07:00 +25°C° 0 mm 2 mps 748 mmHg 81%
    08:00 +27°C° 0 mm 2 mps 748 mmHg 71%
    09:00 +29°C° 0 mm 2 mps 748 mmHg 62%
    10:00 +31°C° 0 mm 3 mps 748 mmHg 52%
    11:00 +33°C° 0 mm 3 mps 748 mmHg 50%
    12:00 +33°C° 0 mm 3 mps 747 mmHg 49%
    13:00 +34°C° 0 mm 3 mps 747 mmHg 47%
    14:00 +33°C° 0 mm 3 mps 746 mmHg 50%
    15:00 +31°C° 0 mm 3 mps 746 mmHg 53%
    16:00 +31°C° 0 mm 3 mps 746 mmHg 57%
    17:00 +29°C° 0 mm 3 mps 746 mmHg 64%
    18:00 +27°C° 0 mm 3 mps 746 mmHg 72%
    19:00 +26°C° 0 mm 3 mps 746 mmHg 79%
    20:00 +25°C° 0 mm 2 mps 746 mmHg 81%
    21:00 +25°C° 0 mm 2 mps 747 mmHg 83%
    22:00 +25°C° 0 mm 2 mps 747 mmHg 85%
    23:00 +24°C° 0 mm 2 mps 747 mmHg 87%

    Tomorrow, 19 November, Sunday

    Time Temperature Precipitation Wind Pressure Humidity
    00:00 +24°C° 0 mm 2 mps 747 mmHg 89%
    01:00 +24°C° 0 mm 2 mps 746 mmHg 91%
    02:00 +24°C° 0 mm 2 mps 746 mmHg 92%
    03:00 +23°C° 0 mm 2 mps 746 mmHg 93%
    04:00 +23°C° 0 mm 1 mps 746 mmHg 93%
    05:00 +24°C° 0 mm 1 mps 746 mmHg 90%
    06:00 +25°C° 0 mm 2 mps 747 mmHg 86%
    07:00 +26°C° 0 mm 2 mps 747 mmHg 82%
    08:00 +27°C° 0 mm 2 mps 747 mmHg 75%
    09:00 +29°C° 0 mm 2 mps 747 mmHg 67%
    10:00 +30°C° 0 mm 2 mps 747 mmHg 60%
    11:00 +32°C° 0 mm 2 mps 747 mmHg 55%
    12:00 +34°C° 0 mm 2 mps 746 mmHg 51%
    13:00 +35°C° 0 mm 3 mps 746 mmHg 46%
    14:00 +34°C° 0 mm 3 mps 745 mmHg 50%
    15:00 +33°C° 0 mm 4 mps 745 mmHg 54%
    16:00 +32°C° 0 mm 4 mps 744 mmHg 58%
    17:00 +30°C° 0 mm 4 mps 745 mmHg 65%
    18:00 +28°C° 0 mm 4 mps 745 mmHg 71%
    19:00 +26°C° 0 mm 3 mps 745 mmHg 78%
    20:00 +26°C° 0 mm 3 mps 746 mmHg 80%
    21:00 +26°C° 0 mm 3 mps 747 mmHg 82%
    22:00 +26°C° 0 mm 3 mps 747 mmHg 83%
    23:00 +25°C° 0.1 mm 3 mps 747 mmHg 85%

    Day after tomorrow, 20 November, Monday

    Time Temperature Precipitation Wind Pressure Humidity
    00:00 +25°C° 0.1 mm 3 mps 747 mmHg 86%
    01:00 +25°C° 0.1 mm 3 mps 747 mmHg 88%
    02:00 +25°C° 0.1 mm 3 mps 747 mmHg 89%
    03:00 +25°C° 0.1 mm 3 mps 747 mmHg 90%
    04:00 +24°C° 0.1 mm 3 mps 746 mmHg 91%
    05:00 +25°C° 0.3 mm 3 mps 747 mmHg 89%
    06:00 +25°C° 0.3 mm 3 mps 747 mmHg 86%
    07:00 +26°C° 0.3 mm 2 mps 748 mmHg 84%
    08:00 +27°C° 0.5 mm 3 mps 748 mmHg 77%
    09:00 +28°C° 0.5 mm 3 mps 748 mmHg 70%
    10:00 +30°C° 0.5 mm 3 mps 748 mmHg 63%
    11:00 +30°C° 0.1 mm 3 mps 748 mmHg 62%
    12:00 +30°C° 0.1 mm 3 mps 747 mmHg 61%
    13:00 +31°C° 0.1 mm 3 mps 747 mmHg 60%
    14:00 +30°C° 0 mm 3 mps 746 mmHg 61%
    15:00 +30°C° 0 mm 3 mps 746 mmHg 62%
    16:00 +30°C° 0 mm 3 mps 745 mmHg 63%
    17:00 +28°C° 0 mm 3 mps 746 mmHg 69%
    18:00 +27°C° 0 mm 3 mps 746 mmHg 76%
    19:00 +26°C° 0 mm 4 mps 747 mmHg 82%
    20:00 +25°C° 0.2 mm 4 mps 747 mmHg 84%
    21:00 +25°C° 0.2 mm 4 mps 748 mmHg 86%
    22:00 +25°C° 0.2 mm 4 mps 748 mmHg 87%
    23:00 +25°C° 0.4 mm 4 mps 748 mmHg 88%

    21 November, Tuesday

    Time Temperature Precipitation Wind Pressure Humidity
    00:00 +25°C° 0.4 mm 4 mps 747 mmHg 90%
    01:00 +24°C° 0.4 mm 3 mps 747 mmHg 91%
    02:00 +24°C° 1 mm 3 mps 747 mmHg 92%
    03:00 +24°C° 1 mm 3 mps 746 mmHg 93%
    04:00 +23°C° 1 mm 4 mps 746 mmHg 94%
    05:00 +24°C° 1.1 mm 3 mps 747 mmHg 92%
    06:00 +24°C° 1.1 mm 2 mps 747 mmHg 90%
    07:00 +25°C° 1.1 mm 2 mps 748 mmHg 88%
    08:00 +26°C° 0.6 mm 2 mps 748 mmHg 81%
    09:00 +27°C° 0.6 mm 2 mps 748 mmHg 73%
    10:00 +29°C° 0.6 mm 2 mps 749 mmHg 66%
    11:00 +29°C° 0.1 mm 3 mps 748 mmHg 63%
    12:00 +30°C° 0.1 mm 3 mps 747 mmHg 60%
    13:00 +31°C° 0.1 mm 3 mps 747 mmHg 57%
    14:00 +30°C° 0.1 mm 3 mps 746 mmHg 60%
    15:00 +29°C° 0.1 mm 3 mps 746 mmHg 63%
    16:00 +28°C° 0.1 mm 4 mps 745 mmHg 66%
    17:00 +27°C° 0.4 mm 4 mps 745 mmHg 72%
    18:00 +26°C° 0.4 mm 4 mps 745 mmHg 79%
    19:00 +25°C° 0.4 mm 4 mps 746 mmHg 85%
    20:00 +25°C° 0.6 mm 3 mps 746 mmHg 86%
    21:00 +24°C° 0.6 mm 3 mps 747 mmHg 88%
    22:00 +24°C° 0.6 mm 3 mps 747 mmHg 89%
    23:00 +24°C° 0.8 mm 3 mps 747 mmHg 90%

    22 November, Wednesday

    Time Temperature Precipitation Wind Pressure Humidity
    00:00 +24°C° 0.8 mm 2 mps 746 mmHg 91%
    01:00 +23°C° 0.8 mm 2 mps 746 mmHg 92%
    02:00 +23°C° 1 mm 2 mps 746 mmHg 93%
    03:00 +23°C° 1 mm 2 mps 745 mmHg 94%
    04:00 +23°C° 1 mm 2 mps 745 mmHg 94%
    05:00 +23°C° 0.1 mm 2 mps 746 mmHg 93%
    06:00 +23°C° 0.1 mm 2 mps 746 mmHg 91%
    07:00 +24°C° 0.1 mm 2 mps 747 mmHg 90%
    08:00 +25°C° 0.1 mm 2 mps 747 mmHg 85%
    09:00 +25°C° 0.1 mm 2 mps 747 mmHg 81%
    10:00 +26°C° 0.1 mm 2 mps 747 mmHg 76%
    11:00 +27°C° 0 mm 2 mps 746 mmHg 70%
    12:00 +29°C° 0 mm 2 mps 746 mmHg 65%
    13:00 +30°C° 0 mm 3 mps 745 mmHg 59%
    14:00 +29°C° 0.1 mm 3 mps 745 mmHg 62%
    15:00 +29°C° 0.1 mm 3 mps 744 mmHg 64%
    16:00 +28°C° 0.1 mm 3 mps 744 mmHg 66%
    17:00 +27°C° 0.2 mm 3 mps 745 mmHg 72%
    18:00 +26°C° 0.2 mm 3 mps 745 mmHg 78%
    19:00 +25°C° 0.2 mm 3 mps 745 mmHg 84%
    20:00 +24°C° 0.4 mm 3 mps 746 mmHg 86%
    21:00 +24°C° 0.4 mm 3 mps 746 mmHg 88%
    22:00 +24°C° 0.4 mm 3 mps 746 mmHg 90%
    23:00 +22°C° 1 mm 3 mps 746 mmHg 91%

    23 November, Thursday

    Time Temperature Precipitation Wind Pressure Humidity
    00:00 +23°C° 1 mm 2 mps 746 mmHg 92%
    01:00 +23°C° 1 mm 2 mps 746 mmHg 93%
    02:00 +23°C° 1.1 mm 2 mps 746 mmHg 94%
    03:00 +23°C° 1.1 mm 2 mps 746 mmHg 94%
    04:00 +23°C° 1.1 mm 2 mps 745 mmHg 94%
    05:00 +23°C° 0.4 mm 2 mps 746 mmHg 92%
    06:00 +24°C° 0.4 mm 2 mps 746 mmHg 89%
    07:00 +24°C° 0.4 mm 2 mps 747 mmHg 87%
    08:00 +26°C° 0.1 mm 2 mps 747 mmHg 80%
    09:00 +27°C° 0.1 mm 2 mps 747 mmHg 74%
    10:00 +28°C° 0.1 mm 2 mps 747 mmHg 67%
    11:00 +29°C° 0.1 mm 2 mps 747 mmHg 64%
    12:00 +30°C° 0.1 mm 3 mps 746 mmHg 60%
    13:00 +31°C° 0.1 mm 3 mps 745 mmHg 57%
    14:00 +30°C° 0.1 mm 3 mps 745 mmHg 59%
    15:00 +30°C° 0.1 mm 4 mps 745 mmHg 62%
    16:00 +29°C° 0.1 mm 4 mps 745 mmHg 64%
    17:00 +28°C° 0.1 mm 3 mps 745 mmHg 71%
    18:00 +26°C° 0.1 mm 3 mps 746 mmHg 78%
    19:00 +25°C° 0.1 mm 3 mps 747 mmHg 85%
    20:00 +25°C° 0.2 mm 3 mps 747 mmHg 87%
    21:00 +24°C° 0.2 mm 3 mps 747 mmHg 89%
    22:00 +24°C° 0.2 mm 3 mps 747 mmHg 91%
    23:00 +24°C° 0.9 mm 3 mps 747 mmHg 91%
    Show more